sat.trackr.live / text

‹ back to catalog

STARLINK-6210

NORAD 56485 · 2023-064AP

PAYLOAD ACTIVE UNKNOWN

§ Identity

Operator
Country
US
Launch date
2023-05-10
Launch site
AFWTR
Launch vehicle
Mass (kg)
RCS (m²)

Purposes: comms

External: N2YO · Heavens-Above · Gunter

§ Orbital elements

Epoch: 2026-09-20T22:00:03.000096Z

Period
95.80 min
Inclination
70.0002°
Eccentricity
0.0003754
Mean motion
15.03182812 rev/d
Perigee alt
554.5 km
Apogee alt
559.7 km
Semi-major
6,935.2 km
B*
8.8387e-5
RAAN
351.9890°
Arg perigee
277.9675°
Mean anomaly
246.3442°
Rev number
572

§ Raw data

STARLINK-62101 56485U 23064AP  26263.91670139  .00001100  00000+0  88387-4 0  99972 56485  70.0002 351.9890 0003754 277.9675 246.3442 15.03182812  5726

JSON: /api/v1/satellites/56485 · /tle

For live sub-satellite position, see the globe view (requires WebGL).

§ Visibility from observer

Set your observer location to see the next 7 days of passes ≥ 10°. The values pass through the URL so the page stays shareable.

No JS? Fill the form by hand. The geolocation button needs JavaScript.